Waarnemingen

Advertentie
Mijn weer
Kempten, Duitsland (10946): temperatuur & dauwpunt: 22.05.2017 20:00:00 - 28.05.2017 20:00:00 (CEST)Kempten, Duitsland (10946): temperatuur 5cm & temperatuur -5cm: 22.05.2017 20:00:00 - 28.05.2017 20:00:00 (CEST)Kempten, Duitsland (10946): temperatuur -20cm & temperatuur -100cm: 22.05.2017 20:00:00 - 28.05.2017 20:00:00 (CEST)Kempten, Duitsland (10946): windsnelheid & windstoten: 22.05.2017 20:00:00 - 28.05.2017 20:00:00 (CEST)Kempten, Duitsland (10946): windrichting: 22.05.2017 20:00:00 - 28.05.2017 20:00:00 (CEST)Kempten, Duitsland (10946): luchtdruk: 22.05.2017 20:00:00 - 28.05.2017 20:00:00 (CEST)Kempten, Duitsland (10946): zicht: 22.05.2017 20:00:00 - 28.05.2017 20:00:00 (CEST)Kempten, Duitsland (10946): neerslag: 22.05.2017 20:00:00 - 28.05.2017 20:00:00 (CEST)
Datum & Tijd tt [°C] td [°C] tt 5cm [°C] tt -5cm [°C] tt -20cm [°C] tt -100cm [°C] ff [km/u] ff [kn] fx [km/u] fx [kn] dd ppp [hPa] vv [km] rr [mm]
28.05.2017 20:00:00 25,9 11,5 26,0 28,8 25,2 13,0 6 3 12 6 O 1015,3 51 0,0
28.05.2017 19:00:00 27,0 9,7 28,4 33,1 25,1 13,0 7 4 15 8 O 1015,0 56 0,0
28.05.2017 18:00:00 28,2 7,7 31,2 38,9 24,8 13,0 6 4 21 12 N 1014,8 37 0,0
28.05.2017 17:00:00 27,8 6,8 31,2 42,8 24,2 13,0 8 4 16 9 NNO 1015,3 38 0,0
28.05.2017 16:00:00 28,2 6,6 31,6 - 23,4 12,9 6 4 16 8 N 1015,4 17 0,0
28.05.2017 15:00:00 27,8 6,0 31,6 - 22,5 12,9 10 5 18 10 NNO 1015,9 19 0,0
28.05.2017 14:00:00 27,3 7,5 32,0 - 21,4 12,9 9 5 19 11 WNW 1016,4 31 0,0
28.05.2017 13:00:00 26,5 8,0 30,6 - 20,3 12,9 9 5 15 8 NNO 1016,9 35 0,0
28.05.2017 12:00:00 26,0 9,3 31,2 - 19,3 12,9 7 4 12 6 O 1017,2 35 0,0
28.05.2017 11:00:00 24,6 9,4 28,2 39,4 18,5 12,9 6 3 13 7 NNO 1017,9 31 0,0
28.05.2017 10:00:00 23,1 8,8 26,6 32,8 18,0 12,9 5 3 12 6 ZW 1018,4 34 0,0
28.05.2017 09:00:00 19,6 10,0 23,3 24,5 17,8 12,8 6 3 28 15 ZZO 1019,4 41 0,0
28.05.2017 08:00:00 16,9 8,9 15,2 14,2 18,0 12,8 6 3 14 8 ZZO 1020,0 29 0,0
28.05.2017 07:00:00 14,1 8,5 13,1 13,2 18,4 12,8 9 5 14 8 ZO 1020,8 23 0,0
28.05.2017 06:00:00 11,5 8,4 8,8 11,3 18,8 12,8 8 4 14 8 ZO 1021,5 53 0,0
28.05.2017 05:00:00 12,0 8,8 8,7 11,6 19,3 12,8 6 3 12 6 ZO 1021,2 43 0,0
28.05.2017 04:00:00 12,7 9,2 10,0 12,1 19,8 12,8 9 5 15 8 OZO 1021,2 41 0,0
28.05.2017 03:00:00 12,3 9,5 10,0 12,7 20,3 12,8 10 5 15 8 OZO 1021,4 36 0,0
28.05.2017 02:00:00 11,7 10,3 9,8 13,4 20,9 12,8 8 4 13 7 ZO 1021,7 30 0,0
28.05.2017 01:00:00 12,4 10,4 10,9 14,3 21,5 12,8 8 4 10 6 OZO 1021,5 23 0,0
28.05.2017 00:00:00 13,1 10,9 11,2 15,4 22,1 12,8 4 2 8 5 OZO 1021,1 24 0,0
27.05.2017 23:00:00 14,7 11,2 12,1 16,9 22,7 12,7 4 2 10 5 OZO 1020,6 27 0,0
27.05.2017 22:00:00 18,1 10,9 14,4 19,0 23,2 12,7 5 3 11 6 NNO 1019,4 42 0,0
27.05.2017 21:00:00 21,5 11,0 18,6 22,0 23,7 12,7 6 3 11 6 ONO 1017,5 35 0,0
27.05.2017 20:00:00 23,8 10,0 24,2 26,8 23,8 12,7 8 4 17 9 ONO 1016,6 44 0,0
27.05.2017 19:00:00 25,4 8,5 26,5 31,9 23,7 12,7 8 5 18 10 NNO 1016,0 51 0,0
27.05.2017 18:00:00 26,0 8,7 28,4 36,6 23,4 12,7 9 5 17 9 NO 1015,8 23 0,0
27.05.2017 17:00:00 26,2 9,0 29,7 40,6 22,8 12,7 9 5 18 10 NO 1015,7 32 0,0
27.05.2017 16:00:00 25,8 9,3 30,1 - 21,9 12,7 7 4 16 9 OZO 1016,0 18 0,0
27.05.2017 15:00:00 25,2 8,2 29,0 - 20,9 12,6 10 5 17 9 N 1016,4 13 0,0
27.05.2017 14:00:00 24,8 8,9 29,3 - 19,8 12,6 10 6 16 9 N 1016,8 35 0,0
27.05.2017 13:00:00 24,2 9,5 28,3 - 18,7 12,6 7 4 16 9 N 1017,4 40 0,0
27.05.2017 12:00:00 22,7 8,9 26,7 40,5 17,7 12,6 8 4 14 8 N 1018,1 27 0,0
27.05.2017 11:00:00 21,8 10,5 26,4 36,3 16,9 12,6 6 3 11 6 O 1018,2 35 0,0
27.05.2017 10:00:00 19,3 10,0 22,9 29,3 16,4 12,6 3 2 22 12 ZZW 1019,0 27 0,0
27.05.2017 09:00:00 15,9 9,3 20,8 21,8 16,2 12,6 6 3 9 5 ZZW 1020,0 29 0,0
27.05.2017 08:00:00 12,9 8,5 11,1 11,7 16,5 12,6 3 2 11 6 ZZO 1020,6 30 0,0
27.05.2017 07:00:00 9,9 8,5 9,2 10,9 16,8 12,6 5 3 8 5 OZO 1021,1 22 0,0
27.05.2017 06:00:00 7,3 6,8 5,6 8,9 17,3 12,5 6 3 9 5 ZO 1021,6 16 0,0
27.05.2017 05:00:00 7,1 6,5 5,6 9,2 17,8 12,5 6 3 9 5 OZO 1021,4 14 0,0
27.05.2017 04:00:00 8,3 7,2 6,9 10,0 18,3 12,5 6 4 8 4 O 1020,9 19 0,0
27.05.2017 03:00:00 9,3 7,7 7,4 10,8 18,8 12,5 6 4 11 6 OZO 1020,8 22 0,0
27.05.2017 02:00:00 9,9 8,1 7,8 11,6 19,3 12,5 1 1 6 4 N 1020,9 24 0,0
27.05.2017 01:00:00 11,0 8,7 8,2 12,6 19,9 12,5 3 2 6 4 NNW 1020,7 53 0,0
27.05.2017 00:00:00 11,9 9,0 9,4 13,9 20,5 12,5 1 1 6 3 NW 1020,3 34 0,0
26.05.2017 23:00:00 14,5 8,6 11,7 15,3 21,1 12,5 7 4 13 7 NO 1019,4 41 0,0
26.05.2017 22:00:00 16,7 8,4 14,2 17,0 21,6 12,5 6 3 13 7 ONO 1018,3 47 0,0
26.05.2017 21:00:00 18,4 8,7 16,2 19,5 22,0 12,5 8 4 16 9 ONO 1017,5 48 0,0
26.05.2017 20:00:00 20,8 8,7 21,2 24,0 22,2 12,4 7 4 20 11 ONO 1016,5 66 0,0
26.05.2017 19:00:00 22,1 8,9 23,5 28,2 22,1 12,4 9 5 26 14 NNO 1015,9 39 0,0
26.05.2017 18:00:00 22,7 8,3 25,0 32,2 21,8 12,4 13 7 27 14 NO 1015,7 14 0,0
26.05.2017 17:00:00 22,7 7,3 25,8 36,6 21,3 12,4 14 7 27 14 NO 1015,9 18 0,0
26.05.2017 16:00:00 22,4 6,7 26,2 39,5 20,5 12,4 13 7 26 14 NO 1016,3 12 0,0
26.05.2017 15:00:00 22,6 9,0 26,8 41,2 19,6 12,4 13 7 22 12 ONO 1016,8 6 0,0
26.05.2017 14:00:00 22,0 4,2 27,0 41,8 18,6 12,4 10 6 23 13 ONO 1017,5 31 0,0
26.05.2017 13:00:00 20,5 5,3 24,8 39,2 17,6 12,4 13 7 25 13 O 1018,2 24 0,0
26.05.2017 12:00:00 19,6 6,3 22,8 36,3 16,7 12,4 14 8 25 14 ONO 1018,8 29 0,0
26.05.2017 11:00:00 18,6 6,5 22,0 32,3 16,0 12,3 11 6 24 13 ONO 1018,9 15 0,0
26.05.2017 10:00:00 17,1 6,7 19,7 26,1 15,5 12,3 11 6 23 12 ONO 1019,4 21 0,0
26.05.2017 09:00:00 16,3 7,5 19,4 20,5 15,4 12,3 7 4 15 8 O 1019,7 31 0,0
26.05.2017 08:00:00 12,4 8,2 10,1 10,9 15,6 12,3 0 0 5 3 ZZO 1020,5 21 0,0
26.05.2017 07:00:00 8,0 6,7 7,4 9,9 16,0 12,3 4 2 5 3 O 1021,8 16 0,0
26.05.2017 06:00:00 5,9 5,5 4,6 8,0 16,4 12,3 4 2 8 4 O 1022,5 7 0,0
26.05.2017 05:00:00 6,5 6,0 5,3 8,4 16,9 12,3 4 2 7 4 O 1022,3 10 0,0
26.05.2017 04:00:00 7,0 6,4 5,7 9,1 17,4 12,3 5 3 10 5 OZO 1022,2 15 0,0
26.05.2017 03:00:00 7,4 6,4 5,9 9,8 17,9 12,3 0 0 7 4 N 1022,3 15 0,0
26.05.2017 02:00:00 8,1 6,7 6,3 10,7 18,4 12,3 0 0 5 3 N 1022,3 24 0,0
26.05.2017 01:00:00 9,3 7,2 7,2 11,6 19,0 12,2 3 1 6 3 O 1022,5 31 0,0
26.05.2017 00:00:00 10,4 7,7 8,2 12,9 19,5 12,2 0 0 10 5 N 1022,2 36 0,0
25.05.2017 23:00:00 11,2 7,7 9,0 14,1 20,1 12,2 4 2 7 4 NNO 1022,1 44 0,0
25.05.2017 22:00:00 13,1 8,4 10,7 15,7 20,6 12,2 3 2 11 6 NO 1021,4 48 0,0
25.05.2017 21:00:00 15,4 7,9 13,7 18,1 21,0 12,2 6 3 15 8 ONO 1020,2 59 0,0
25.05.2017 20:00:00 17,7 7,1 17,9 22,1 21,2 12,2 10 5 19 10 NNO 1019,2 36 0,0
25.05.2017 19:00:00 18,9 7,0 20,2 26,7 21,1 12,2 9 5 20 11 N 1018,8 31 0,0
25.05.2017 18:00:00 20,0 7,5 24,0 32,3 20,8 12,2 9 5 20 11 NNO 1018,7 32 0,0
25.05.2017 17:00:00 19,5 7,6 23,2 33,1 20,3 12,2 10 5 21 12 N 1019,0 38 0,0
25.05.2017 16:00:00 18,7 7,4 20,7 34,0 19,7 12,2 8 5 19 10 NNW 1019,4 43 0,0
25.05.2017 15:00:00 18,4 8,0 22,6 33,3 19,0 12,1 10 5 25 13 NNW 1019,7 40 0,0
25.05.2017 14:00:00 18,0 7,1 22,6 34,2 18,3 12,1 10 5 20 11 N 1020,0 26 0,0
25.05.2017 13:00:00 18,2 6,9 22,2 34,6 17,5 12,1 7 4 18 10 NNW 1020,2 34 0,0
25.05.2017 12:00:00 17,7 8,0 22,7 32,6 17,0 12,1 8 5 16 9 NNO 1020,7 29 0,0
25.05.2017 11:00:00 16,1 6,6 18,6 28,7 16,4 12,1 9 5 17 9 N 1021,3 26 0,0
25.05.2017 10:00:00 16,0 8,3 19,3 24,3 15,9 12,1 7 4 12 7 ONO 1021,2 27 0,0
25.05.2017 09:00:00 15,3 10,8 17,9 21,0 15,8 12,1 4 2 8 4 OZO 1021,2 12 0,0
25.05.2017 08:00:00 13,7 11,3 12,7 14,5 15,9 12,1 2 1 6 3 O 1021,7 8 0,0
25.05.2017 07:00:00 10,8 10,4 10,4 12,4 16,2 12,1 6 3 7 4 O 1022,5 3,9 0,0
25.05.2017 06:00:00 10,7 10,4 9,8 11,5 16,5 12,0 3 2 7 4 O 1022,5 3,5 0,0
25.05.2017 05:00:00 11,6 11,2 10,7 12,7 16,7 12,0 5 3 7 4 OZO 1022,3 3,0 0,0
25.05.2017 04:00:00 12,3 11,8 11,8 13,6 17,0 12,0 3 2 7 4 ZO 1022,3 6 0,0
25.05.2017 03:00:00 12,5 11,7 12,0 13,9 17,2 12,0 5 3 8 5 Z 1022,5 6 0,0
25.05.2017 02:00:00 12,7 11,7 12,3 14,3 17,5 12,0 3 1 10 6 Z 1022,9 7 0,1
25.05.2017 01:00:00 12,8 11,7 12,4 14,6 17,8 12,0 0 0 8 5 N 1023,2 8 0,1
25.05.2017 00:00:00 13,6 11,1 12,7 14,7 18,1 12,0 6 3 16 9 O 1023,0 12 0,0
24.05.2017 23:00:00 13,2 11,3 12,8 15,2 18,5 12,0 5 3 13 7 Z 1022,9 16 0,0
24.05.2017 22:00:00 13,4 11,7 12,7 15,7 18,8 12,0 2 1 6 3 ZZO 1022,8 14 0,0
24.05.2017 21:00:00 14,1 11,6 13,2 16,6 19,2 11,9 4 2 10 5 O 1022,3 18 0,2
24.05.2017 20:00:00 16,5 8,9 15,9 18,8 19,4 11,9 8 5 20 11 N 1021,5 42 0,0
24.05.2017 19:00:00 17,6 8,4 17,6 21,5 19,5 11,9 10 5 23 12 N 1020,9 50 0,0
24.05.2017 18:00:00 18,6 7,3 19,5 24,0 19,5 11,9 10 5 23 12 NNW 1020,5 61 0,0
24.05.2017 17:00:00 18,4 6,6 19,1 24,7 19,3 11,9 11 6 23 13 NNW 1020,8 52 0,0
24.05.2017 16:00:00 19,3 7,6 22,1 30,1 18,9 11,9 13 7 26 14 NW 1020,6 44 0,0
24.05.2017 15:00:00 19,2 7,6 22,5 32,6 18,4 11,9 10 6 21 12 WNW 1020,9 50 0,0
24.05.2017 14:00:00 18,5 8,7 21,8 31,2 17,7 11,9 9 5 26 14 NW 1021,3 38 0,0
24.05.2017 13:00:00 19,1 9,3 22,8 33,6 17,1 11,9 13 7 33 18 WNW 1021,4 27 0,0
24.05.2017 12:00:00 17,4 9,0 20,2 26,5 16,6 11,8 16 8 27 15 NW 1022,3 32 0,0
24.05.2017 11:00:00 16,4 8,4 20,8 26,8 16,3 11,8 11 6 29 16 WNW 1022,6 30 0,0
24.05.2017 10:00:00 14,8 7,9 16,4 19,9 16,2 11,8 10 6 19 10 WNW 1023,4 31 0,0
24.05.2017 09:00:00 14,4 7,3 14,9 16,2 16,2 11,8 9 5 23 12 NW 1023,2 39 0,0
24.05.2017 08:00:00 14,4 9,8 14,7 15,8 16,3 11,8 10 5 22 12 NW 1022,6 23 0,0
24.05.2017 07:00:00 14,4 10,5 13,8 14,5 16,5 11,8 7 4 14 8 NNW 1022,1 17 0,0
24.05.2017 06:00:00 14,8 10,7 13,9 14,2 16,7 11,8 6 3 13 7 NW 1021,5 29 0,0
24.05.2017 05:00:00 15,3 10,7 14,3 14,4 16,9 11,8 5 3 12 6 WNW 1021,2 38 0,0
24.05.2017 04:00:00 15,4 10,9 14,1 14,3 17,2 11,8 6 4 12 6 WNW 1020,8 47 0,0
24.05.2017 03:00:00 13,6 10,8 12,6 14,1 17,5 11,8 4 2 7 4 ZZO 1021,1 49 0,0
24.05.2017 02:00:00 13,9 11,3 12,6 14,4 17,8 11,8 3 1 9 5 Z 1021,1 54 0,0
24.05.2017 01:00:00 13,5 10,9 12,1 14,2 18,2 11,8 4 2 8 4 O 1021,2 47 0,0
24.05.2017 00:00:00 14,7 11,9 12,9 15,2 18,6 11,8 5 3 9 5 ZZO 1020,9 44 0,0
23.05.2017 23:00:00 15,6 11,8 14,2 16,1 19,0 11,7 6 3 9 5 OZO 1020,5 47 0,0
23.05.2017 22:00:00 17,6 11,3 15,5 17,0 19,4 11,7 6 4 13 7 WZW 1019,4 53 0,0
23.05.2017 21:00:00 16,8 13,4 15,7 18,6 19,8 11,7 5 3 9 5 OZO 1018,8 39 0,0
23.05.2017 20:00:00 17,9 12,5 15,9 20,3 20,0 11,7 6 3 30 16 ZW 1018,3 43 0,3
23.05.2017 19:00:00 21,4 9,0 21,5 24,7 20,0 11,7 15 8 34 19 WZW 1017,0 61 0,0
23.05.2017 18:00:00 22,0 8,6 22,7 27,7 19,7 11,7 14 7 34 18 W 1016,8 36 0,0
23.05.2017 17:00:00 22,8 7,1 25,6 32,0 19,3 11,7 17 9 31 17 WZW 1016,7 14 0,0
23.05.2017 16:00:00 23,1 8,4 27,3 34,8 18,7 11,7 13 7 35 19 W 1016,5 18 0,0
23.05.2017 15:00:00 22,5 8,5 26,7 34,1 18,1 11,7 18 10 38 20 WZW 1016,6 28 0,0
23.05.2017 14:00:00 21,0 8,4 22,8 31,2 17,4 11,7 18 10 37 20 W 1017,3 36 0,0
23.05.2017 13:00:00 20,9 8,9 23,4 32,8 16,6 11,7 14 8 31 17 W 1017,5 54 0,0
23.05.2017 12:00:00 20,7 8,8 23,4 30,9 15,8 11,7 16 9 33 18 W 1017,6 53 0,0
23.05.2017 11:00:00 20,3 9,7 24,0 29,6 15,2 11,7 13 7 27 15 W 1017,6 32 0,0
23.05.2017 10:00:00 18,7 9,2 19,8 21,7 14,8 11,7 13 7 29 15 WZW 1018,3 49 0,0
23.05.2017 09:00:00 18,8 9,7 21,1 20,3 14,6 11,7 11 6 29 16 WZW 1017,8 31 0,0
23.05.2017 08:00:00 16,1 9,5 15,4 14,1 14,7 11,7 9 5 14 8 Z 1017,9 20 0,0
23.05.2017 07:00:00 12,1 8,5 10,8 11,7 14,9 11,7 6 4 16 9 ZZO 1018,9 44 0,0
23.05.2017 06:00:00 11,5 7,8 9,7 10,5 15,2 11,7 8 5 16 9 ZZO 1018,5 44 0,0
23.05.2017 05:00:00 11,2 7,8 9,0 10,6 15,6 11,7 6 4 14 7 ZZO 1018,4 39 0,0
23.05.2017 04:00:00 11,3 8,0 8,6 10,6 16,0 11,7 8 4 14 8 ZZO 1018,2 41 0,0
23.05.2017 03:00:00 10,7 8,3 9,1 11,2 16,4 11,7 7 4 13 7 OZO 1018,3 34 0,0
23.05.2017 02:00:00 9,9 8,1 8,1 11,0 16,9 11,7 6 3 12 6 O 1018,6 33 0,0
23.05.2017 01:00:00 10,1 8,4 8,6 11,5 17,4 11,7 9 5 12 6 OZO 1018,5 29 0,0
23.05.2017 00:00:00 10,6 8,6 8,5 12,4 17,9 11,7 8 4 10 6 ZO 1018,1 31 0,0
22.05.2017 23:00:00 11,1 8,6 9,4 13,7 18,5 11,7 5 3 11 6 O 1018,1 27 0,0
22.05.2017 22:00:00 13,5 8,7 11,7 15,3 19,0 11,7 8 5 11 6 OZO 1017,1 40 0,0
22.05.2017 21:00:00 17,1 9,3 14,2 18,0 19,3 11,6 0 0 13 7 W 1015,6 60 0,0
22.05.2017 20:00:00 21,0 5,6 20,7 22,1 19,4 11,6 9 5 22 12 W 1014,3 49 0,0

tt = temperatuur
td = dauwpunt
tt 5cm = temperatuur 5cm
tt -5cm = temperatuur -5cm
tt -20cm = temperatuur -20cm
tt -100cm = temperatuur -100cm
ff = windsnelheid
fx = windstoten
dd = windrichting
ppp = luchtdruk
vv = zicht
rr = neerslag

Weerstations in de omgeving